Regional Weather Roundup
Issued by NWS

Home | Current Version | Previous Version | Text Only | Print | Product List | Glossary Off
Versions: 1 2 3 4 5 6 7 8 9 10 11 12 13 14 15 16 17 18 19 20 21 22 23 24 25 26 27 28 29 30 31 32 33 34 35 36 37 38 39 40 41 42 43 44 45 46 47 48 49 50

000
ASUS43 KIND 070359
RWRIN

WEATHER ROUNDUP FOR INDIANA
NATIONAL WEATHER SERVICE INDIANAPOLIS IN
1100 PM EST TUE DEC 06 2016

NOTE: "FAIR" INDICATES FEW OR NO CLOUDS BELOW 12,000 FEET WITH NO
SIGNIFICANT WEATHER AND/OR OBSTRUCTIONS TO VISIBILITY.

* - STATION DOES NOT REPORT WEATHER SUCH AS PRECIPITATION OR FOG.

+ - STATION NOT QUALITY CONTROLLED BY THE NATIONAL WEATHER SERVICE.
    USE DATA WITH CAUTION...ESPECIALLY DEWPOINT AND RELATIVE
    HUMIDITY OBSERVATIONS.

INZ001>003-010>013-019-020-070500-
NORTHWEST INDIANA

CITY           SKY/WX    TMP DP  RH WIND       PRES   REMARKS
GARY /AIRPORT/ CLEAR     30  23  74 W18       29.98R WCI  18
RENSSELAER +     N/A     32  28  86 W16       29.99R WCI  21

$$

LMZ046-743>745-070500-
SOUTHERN LAKE MICHIGAN

STATION/POSITION TIME  TEMP    WIND        PRES    WAVE
                       AIR SEA DIR/SP/G            HT
                 (UTC) (F)     (DEG/KT/KT) (MB)    (FT)
BURNS HARBOR     0340   33     260/ 26/ 33 1014.6R
MICHIGAN CITY    0330   33     240/ 33/ 38   N/A

$$

INZ004-005-014>016-021>024-070500-
NORTH CENTRAL INDIANA

CITY           SKY/WX    TMP DP  RH WIND       PRES   REMARKS
GOSHEN         CLEAR     30  22  72 W14       29.93R WCI  19
SOUTH BEND     CLEAR     30  24  78 W16G22    29.93R WCI  19

$$

INZ006>009-017-018-025>027-070500-
NORTHEAST INDIANA

CITY           SKY/WX    TMP DP  RH WIND       PRES   REMARKS
ANGOLA *+      CLOUDY    34  28  80 W13       29.88R WCI  25
FORT WAYNE     PTCLDY    32  24  72 W18G26    29.93R WCI  20
KENDALLVILLE + CLOUDY    32  27  80 W18G24    29.90R WCI  20

$$

INZ028-029-035-036-043>045-051>053-070500-
WEST CENTRAL INDIANA

CITY           SKY/WX    TMP DP  RH WIND       PRES   REMARKS
CRAWFORDSVL +  CLEAR     30  27  91 W8        30.01S WCI  22
GREENCASTLE +  CLEAR     32  30  93 CALM      30.02
LAFAYETTE      CLEAR     31  27  85 W9        30.00R WCI  23
TERRE HAUTE    CLEAR     32  27  81 W5        30.05R WCI  27

$$

INZ030>032-037>040-046>048-054>057-064-065-070500-
CENTRAL INDIANA

CITY           SKY/WX    TMP DP  RH WIND       PRES   REMARKS
GREENWOOD *+   MOCLDY    35  32  88 W9G17     30.02R WCI  27
INDIANAPOLIS   PTCLDY    32  29  88 W8        30.01R WCI  25
-EAGLE CREEK   PTCLDY    34  29  82 W14       30.01R WCI  25
KOKOMO +       PTCLDY    31  27  85 W13       29.99R WCI  21
SHELBYVILLE    PTCLDY    35  30  82 W7        30.00R WCI  29

$$

INZ033-034-041-042-049-050-058-059-070500-
EAST CENTRAL INDIANA

CITY           SKY/WX    TMP DP  RH WIND       PRES   REMARKS
MUNCIE         CLEAR     33  28  81 W13       29.97R WCI  24

$$

INZ060-061-067>069-081>083-085>088-070500-
SOUTHWEST INDIANA

CITY           SKY/WX    TMP DP  RH WIND       PRES   REMARKS
EVANSVILLE     CLOUDY    38  33  82 W3        30.10R
HUNTINGBURG *+ PTCLDY    35  33  92 NW6       30.08R WCI  30

$$

INZ062-063-066-070>080-084-089>092-070500-
SOUTH CENTRAL AND SOUTHEAST INDIANA

CITY           SKY/WX    TMP DP  RH WIND       PRES   REMARKS
BLOOMINGTON    CLEAR     34  28  79 W7        30.03R WCI  28
MADISON *+     MOCLDY    36  32  87 W3        30.03S
SEYMOUR +      CLEAR     34  30  86 W7        30.03R WCI  28

$$





USA.gov is the U.S. government's official web portal to all federal, state and local government web resources and services.